www.pogodaiklimat.ru

Погода и климат >> Архив погоды >> Индия >> Mangalore Airport


ПОГОДА в Mangalore Airport

  • Прогноз погоды в Mangalore Airport
  • Монитор погоды в Mangalore Airport
  • Климат города

АРХИВ ПОГОДЫ в Mangalore Airport

Время (UTC), дата Ветер
(напр.,м/с)
 
Видим.   Явления Облачность Т
(С)
Тd
(С)
f
(%)
Тe
(С)
Тes
(С)
Комфортность P
(гПа)
Po
(гПа)
Тmin
(С)
Tmax
(С)
R
(мм)
R24
(мм)
S
(см)
03 19.02 В 3 4000 м дымка 1/1 450 м
[Sc]
+24.8 +21.5 82 +32 +35 очень
душно
1012.1 1000.5 +22.6 +33.6
06 19.02 Ю 2 4000 м 1/1 600 м
[Sc]
+31.4 +18.8 47 +36 +53 опасность
солнечного
удара
1011.4 1000.1
09 19.02 З 4 4000 м 1/1 600 м
[Sc]
+32.4 +21.8 54 +41 +49 опасность
перегрева
1007.9 996.6
12 19.02 З 3 4000 м ясно +30.4 +23.1 65 +41 +41 опасность
перегрева
1007.7 996.3 +33.6
15 19.02 СЗ 2 4000 м ясно +27.4 +22.7 76 +36 +36 очень
душно
1009.9 998.4
18 19.02 С 2 4000 м ясно +26.6 +22.8 80 +35 +35 очень
душно
1010.6 999.1
21 19.02 В 2 4000 м ясно +25.0 +23.2 90 +33 +33 очень
душно
1009.7 998.1
00 20.02 В 3 4000 м дымка ясно +24.0 +22.5 91 +31 +31 очень
душно
1010.1 998.5
03 20.02 В 2 2000 м дымка ясно +25.2 +21.9 82 +32 +37 очень
душно
1011.8 1000.2 +23.4 +33.6
06 20.02 ЮЗ 2 4000 м ясно +32.2 +15.1 36 +34 +52 опасность
солнечного
удара
1011.5 1000.2
09 20.02 З 5 4000 м ясно +33.0 +20.1 47 +39 +47 очень
душно
1007.9 996.6
12 20.02 З 4 4000 м ясно +30.2 +21.6 60 +38 +39 очень
душно
1007.6 996.2 +33.9
15 20.02 С 3 4000 м 3/1 600 м
[Sc Ci fib]
+27.6 +22.9 76 +37 +37 очень
душно
1009.5 998.0
18 20.02 СВ 2 4000 м 3/3 450 м
[Sc]
+26.4 +22.2 78 +34 +34 очень
душно
1010.2 998.7
21 20.02 СВ 2 4000 м 3/1 450 м
[Sc Ci fib]
+25.2 +21.9 82 +32 +32 очень
душно
1008.7 997.1
00 21.02 штиль 0 4000 м дымка 3/1 450 м
[Sc Ci fib]
+24.0 +21.9 88 +31 +31 очень
душно
1008.5 996.9
03 21.02 В 2 4000 м дымка 3/1 450 м
[Sc Ci fib]
+24.8 +21.2 80 +31 +35 очень
душно
1010.7 999.1 +22.8 +33.9
06 21.02 ЮВ 3 4000 м ясно +33.2 +20.3 47 +33 +48 жарко 1009.8 998.5
09 21.02 З 7 4000 м ясно +33.6 +19.4 43 +39 +43 очень
душно
1006.1 994.9
12 21.02 З 5 4000 м ясно +31.2 +18.9 48 +36 +37 очень
душно
1006.0 994.7 +35.2
15 21.02 С 2 4000 м ясно +27.6 +22.3 73 +36 +36 очень
душно
1008.5 997.0
18 21.02 СВ 2 4000 м ясно +26.6 +22.5 78 +35 +35 очень
душно
1010.0 998.5
21 21.02 В 2 4000 м 1/1 450 м
[Sc]
+24.2 +21.2 83 +31 +31 очень
душно
1009.2 997.6
00 22.02 В 2 4000 м 1/1 450 м
[Sc]
+23.6 +21.2 86 +30 +30 очень
душно
1009.2 997.6
03 22.02 В 3 4000 м дымка ясно +24.8 +20.5 77 +31 +34 очень
душно
1010.9 999.3 +22.2 +35.2
06 22.02 Ю 3 4000 м ясно +32.0 +15.2 36 +34 +50 душно 1009.6 998.3
09 22.02 З 5 4000 м ясно +33.6 +18.2 40 +38 +45 очень
душно
1006.0 994.7
12 22.02 З 4 4000 м ясно +30.4 +21.2 58 +38 +39 очень
душно
1005.6 994.2 +34.4
15 22.02 С 2 4000 м 3/1 450 м
[Sc Ci fib]
+27.6 +22.9 76 +37 +37 очень
душно
1008.7 997.2
18 22.02 С 2 4000 м 3/1 450 м
[Sc Ci fib]
+26.6 +23.4 83 +36 +36 очень
душно
1010.1 998.6
21 22.02 В 2 4000 м 1/1 360 м
[Sc]
+25.0 +22.6 87 +33 +33 очень
душно
1008.9 997.4
00 23.02 штиль 0 4000 м дымка 3/1 450 м
[Sc Ci fib]
+23.6 +21.2 86 +30 +30 очень
душно
1008.8 997.2
03 23.02 В 2 2000 м дымка ясно +24.8 +22.1 85 +32 +37 очень
душно
1010.9 999.3 +22.4 +34.4
06 23.02 В 5 4000 м ясно +32.4 +13.6 32 +34 +43 очень
жарко
1010.4 999.1
09 23.02 ЮЗ 5 4000 м ясно +32.6 +18.1 42 +37 +44 очень
душно
1006.4 995.2
12 23.02 З 4 4000 м ясно +30.6 +22.4 62 +40 +41 очень
душно
1006.3 995.0 +35.4
15 23.02 С 3 4000 м 1/1 450 м
[Sc]
+27.4 +22.8 76 +36 +36 очень
душно
1008.5 997.1
18 23.02 С 2 4000 м ясно +26.8 +23.0 80 +36 +36 очень
душно
1009.8 998.3
21 23.02 штиль 0 4000 м ясно +24.6 +21.6 83 +31 +31 очень
душно
1009.2 997.6
00 24.02 штиль 0 4000 м ясно +23.0 +21.2 90 +31 +31 очень
душно
1010.0 998.3
03 24.02 В 2 4000 м ясно +24.4 +17.0 63 +28 +32 душно 1012.5 1000.9 +22.0 +35.4
06 24.02 ЮВ 4 4000 м ясно +32.2 +10.4 26 +32 +43 жарко 1011.5 1000.2
09 24.02 З 6 10 км ясно +34.0 +17.6 38 +38 +44 очень
душно
1008.1 996.8
12 24.02 ЮЗ 5 4000 м 1/1 450 м
[Sc]
+30.6 +23.4 65 +41 +42 опасность
перегрева
1007.8 996.4 +36.5
15 24.02 З 2 4000 м 4/3 450 м
[Sc Ci fib]
+27.8 +23.1 76 +37 +37 очень
душно
1010.7 999.2
18 24.02 штиль 0 4000 м ясно +26.6 +23.1 81 +36 +36 очень
душно
1011.5 1000.0
21 24.02 СВ 2 4000 м ясно +25.2 +22.5 85 +33 +33 очень
душно
1009.9 998.3
00 25.02 штиль 0 4000 м ясно +24.0 +22.1 89 +31 +31 очень
душно
1010.0 998.4
03 25.02 В 2 4000 м дымка ясно +24.8 +20.5 77 +31 +35 очень
душно
1012.4 1000.8 +22.0 +36.5
06 25.02 В 3 10 км ясно +33.4 +15.9 35 +36 +51 опасность
солнечного
удара
1011.7 1000.4
09 25.02 З 5 4000 м ясно +33.0 +19.7 46 +39 +46 очень
душно
1008.6 997.3
12 25.02 З 5 4000 м ясно +30.4 +18.7 50 +36 +36 очень
душно
1008.2 996.8 +35.6
15 25.02 СЗ 3 4000 м ясно +27.8 +22.7 74 +37 +37 очень
душно
1010.6 999.1
18 25.02 В 2 4000 м ясно +26.8 +22.7 78 +35 +35 очень
душно
1011.7 1000.2
21 25.02 СВ 2 4000 м ясно +25.6 +22.3 82 +33 +33 очень
душно
1010.2 998.6

 

Местоположение метеостанции Mangalore Airport (Karnataka, Индия): широта 12.92 долгота 74.88 высота над уровнем моря 102 м.

В архиве по умолчанию представлена погода в Mangalore Airport за последнюю неделю. Архивные данные за месяц целиком и за предыдущие месяцы, начиная с января 2011 года, Вы можете получить, выбрав интересующий диапазон дат из раскрывающегося списка и нажав кнопку "Ввод!".

Внимание! Время в таблицах - всемирное. Для получения местного времени необходимо прибавить поправку, которая в Mangalore Airport равна 5.5 ч.

Смотрите также архив погоды в соседних городах и на ближайших метеорологических станциях:

Погода в Mangalore (Karnataka, Индия) (6 км)
Погода в Agumbe Emo (Karnataka, Индия) (68 км)
Погода в Chickmagalur (Karnataka, Индия) (101 км)
Погода в Madikeri (Karnataka, Индия) (108 км)
Погода в Cannanore (Kerala, Индия) (131 км)
Погода в Shirali (Karnataka, Индия) (133 км)
Погода в Shimoga (Karnataka, Индия) (139 км)
Погода в Hassan (Karnataka, Индия) (157 км)
Погода в Honavar (Karnataka, Индия) (158 км)
Погода в Davangere (Karnataka, Индия) (209 км)

Пояснения к столбцам:

Ветер - указаны скорость ветра в м/с - средняя за 10 мин, порывы в срок и между сроками (в фигурных скобках) и направление, откуда дует ветер: С - северный, СВ - северо-восточный, В - восточный, ЮВ - юго-восточный, Ю - южный, ЮЗ - юго-западный, З - западный, СЗ - северо-западный.
Видимость - горизонтальная дальность видимости в метрах или километрах. При видимости от 1 до 10 км при отсутствии осадков обычно наблюдается дымка, при ухудшении видимости до 1 км и менее - туман. В сухую погоду видимость может ухудшаться дымом, пылью или мглою.
Явления - указаны атмосферные явления, наблюдавшиеся в срок или в последний час перед сроком; фигурными скобками обозначены явления, наблюдавшиеся между сроками (за 1-3 часа до срока); квадратными скобками обозначены град или гололедные отложения с указанием их диаметра в мм.
Облачность - указаны через наклонную черту общая и нижняя облачность в баллах и высота нижней границы облаков в метрах; квадратными скобками обозначены формы облаков: Ci - перистые, Cs - перисто-слоистые, Cc - перисто-кучевые, Ac - высококучевые, As - высокослоистые, Sc - слоисто-кучевые, Ns - слоисто-дождевые, Cu - кучевые, Cb - кучево-дождевые. Подробнее классификацию облаков см. в Атласе облаков (PDF).
T - Температура воздуха - температура, измеренная на высоте 2 м над землей.
Td - Температура точки росы - температура, при понижении до которой содержащийся в воздухе водяной пар достигнет насыщения.
f - Относительная влажность воздуха - влажноcть воздуха, измеренная на высоте 2 м над землей.
Te - Эффективная температура - температура, которую ощущает одетый по сезону человек в тени. Характеристика душности погоды. При расчете учитывается влияние влажности воздуха и скорости ветра на теплоощущения человека.
Tes - Эффективная температура на солнце - температура, которую ощущает человек, с поправкой на солнечный нагрев. Характеристика знойности погоды. Зависит от высоты солнца над горизонтом, облачности и скорости ветра. Ночью, в пасмурную погоду, а также при ветре 12 м/с и более поправка равна нулю.
P - Атмосферное давление - приведенное к уровню моря атмосферное давление.
Po - Атмосферное давление - измеренное на уровне метеостанции атмосферное давление.
Tmin - Минимальная температура - минимум температуры воздуха на высоте 2 м над землей.
Tmax - Максимальная температура - максимум температуры воздуха на высоте 2 м над землей.
R - Количество осадков - Количество выпавших осадков за период времени, мм. При наведении курсора мыши на число - период времени, за который выпало указанное количество осадков.
R24 - Количество осадков - Количество выпавших осадков за 24 часа, мм.
S - Снежный покров - Высота снежного покрова, см. При наведении курсора мыши на число - состояние снежного покрова и степень покрытия местности в баллах.